Weather History for Iguazu Aerodrome, Argentina

Change the Weather History Date:

Sunday, September 22, 2013

  Actual Average Record
Temperature  
Mean Temperature 64 °F -  
Max Temperature 68 °F 79 °F - ()
Min Temperature 60 °F 58 °F - ()
Degree Days  
Heating Degree Days 1    
Growing Degree Days 14 (Base 50)    
Moisture  
Dew Point 63 °F    
Average Humidity 99    
Maximum Humidity 100    
Minimum Humidity 88    
Precipitation  
Precipitation 1.97 in - - ()
Sea Level Pressure  
Sea Level Pressure 29.91 in    
Wind  
Wind Speed 7 mph ()    
Max Wind Speed 18 mph    
Max Gust Speed 31 mph    
Visibility 4.6 miles    
Events Rain , Thunderstorm    
T = Trace of Precipitation, MM = Missing Value Source: Averaged Metar Reports

Daily Weather History Graph

Daily Weather History Graph

Search for Another Location

Airport:

Trip Planner

Search our weather history database for the weather conditions in past years. The results will help you decide how hot, cold, wet, or windy it might be!

Date:

Astronomy

Sep. 22, 2013 Rise Set
Actual Time 6:27 AM ART 6:34 PM ART
Civil Twilight 6:04 AM ART 6:57 PM ART
Nautical Twilight 5:37 AM ART 7:23 PM ART
Astronomical Twilight 5:10 AM ART 7:50 PM ART
Moon 9:47 PM ART (9/22) 8:21 AM ART (9/22)
Length of Visible Light 12h 52m
Length of Day
12h 06m
Waning Gibbous, 89% of the Moon is Illuminated
Sep 22
Waning Gibbous
Sep 27
Last Quarter
Oct 4
New
Oct 11
First Quarter
Oct 18
Full

Hourly Weather History & Observations

Time (ART) Temp. Dew Point Humidity Pressure Visibility Wind Dir Wind Speed Gust Speed Precip Events Conditions
12:00 AM 64.4 °F 62.6 °F 94% 29.74 in 6.2 mi Calm Calm - N/A Thunderstorm Thunderstorm
1:00 AM 64.4 °F 62.6 °F 94% 29.74 in 6.2 mi NE 9.2 mph - N/A Thunderstorm Thunderstorm
2:00 AM 62.6 °F 62.6 °F 100% 29.74 in 3.1 mi Calm Calm - N/A Rain , Thunderstorm Light Thunderstorms and Rain
3:00 AM 62.6 °F 62.6 °F 100% 29.80 in 3.1 mi South 13.8 mph - N/A Rain , Thunderstorm Light Thunderstorms and Rain
4:00 AM 62.6 °F 62.6 °F 100% 29.83 in 3.1 mi South 11.5 mph - N/A Rain , Thunderstorm Light Thunderstorms and Rain
5:00 AM 62.6 °F 62.6 °F 100% 29.77 in 3.1 mi South 9.2 mph - N/A Rain , Thunderstorm Light Thunderstorms and Rain
6:00 AM 62.6 °F 62.6 °F 100% 29.77 in 5.0 mi South 5.8 mph - N/A   Overcast
7:00 AM 62.6 °F 62.6 °F 100% 29.83 in 5.0 mi NE 5.8 mph - N/A Thunderstorm Thunderstorm
8:00 AM 62.6 °F 62.6 °F 100% 29.89 in 1.9 mi SSE 4.6 mph - N/A Rain , Thunderstorm Light Thunderstorms and Rain
9:00 AM 63 °F 63 °F 100% 29.84 in 6 mi NE 4.6 mph - -   Blowing Sand
9:00 AM 62.6 °F 62.6 °F 100% 29.89 in 6.2 mi NE 4.6 mph - N/A   Mostly Cloudy
10:00 AM 64.4 °F 64.4 °F 100% 29.89 in 4.3 mi East 6.9 mph - N/A Rain , Thunderstorm Light Thunderstorms and Rain
10:52 AM 64.4 °F 64.4 °F 100% 30.01 in 1.2 mi SW 18.4 mph 23.0 mph N/A Rain , Thunderstorm Light Thunderstorms and Rain
11:00 AM 64.4 °F 64.4 °F 100% 29.98 in 0.9 mi SW 16.1 mph 31.1 mph N/A Rain , Thunderstorm Light Thunderstorms and Rain
12:00 PM 64.4 °F 64.4 °F 100% 29.92 in 1.2 mi East 11.5 mph - N/A Rain , Thunderstorm Light Thunderstorms and Rain
1:00 PM 64.4 °F 64.4 °F 100% 29.95 in 1.9 mi ENE 6.9 mph - N/A Rain , Thunderstorm Light Thunderstorms and Rain
2:00 PM 62.6 °F 62.6 °F 100% 29.92 in 6.2 mi NE 6.9 mph - N/A   Overcast
3:00 PM 66 °F 66 °F 99% 29.87 in 12 mi ENE 5.8 mph - -   Partly Cloudy
3:00 PM 66.2 °F 66.2 °F 100% 29.92 in 6.2 mi ENE 5.8 mph - N/A   Mostly Cloudy
5:00 PM 68.0 °F 64.4 °F 88% 29.98 in 6.2 mi SSW 6.9 mph - N/A   Mostly Cloudy
5:30 PM 68.0 °F 64.4 °F 88% 29.98 in 0.9 mi SSW 6.9 mph - N/A   Mostly Cloudy
6:00 PM 64.4 °F 64.4 °F 100% 30.01 in 6.2 mi SSW 11.5 mph - N/A   Overcast
7:00 PM 64.4 °F 64.4 °F 100% 30.04 in 6.2 mi SSW 11.5 mph - N/A   Mostly Cloudy
8:00 PM 62.6 °F 62.6 °F 100% 30.04 in 6.2 mi SSW 11.5 mph - N/A   Mostly Cloudy
9:00 PM 62 °F 62 °F 98% 30.03 in 6 mi SW 8.1 mph - -   Partly Cloudy
9:00 PM 60.8 °F 60.8 °F 100% 30.06 in 6.2 mi SW 8.1 mph - N/A   Mostly Cloudy
10:00 PM 60.8 °F 60.8 °F 100% 30.06 in 4.3 mi SW 9.2 mph - N/A   Light Drizzle
11:00 PM 60.8 °F 60.8 °F 100% 30.09 in 4.3 mi SSW 8.1 mph - N/A   Light Drizzle